Time,TemperatureF,DewpointF,PressureIn,WindDirection,WindDirectionDegrees,WindSpeedMPH,WindSpeedGustMPH,Humidity,HourlyPrecipIn,Conditions,Clouds,dailyrainin,SoftwareType,DateUTC
2013-08-12 00:03:00,83.3,72.9,29.56,ESE,112,0.0,0.0,71,0.00,,,0.00,WUHU21623XXSP,2013-08-12 04:03:00,
2013-08-12 00:08:00,83.1,72.7,29.56,ENE,67,0.0,0.0,71,0.00,,,0.00,WUHU21623XXSP,2013-08-12 04:08:00,
2013-08-12 00:13:00,83.1,73.1,29.56,ENE,67,0.0,0.0,72,0.00,,,0.00,WUHU21623XXSP,2013-08-12 04:13:00,
2013-08-12 00:18:00,83.1,73.1,29.55,East,90,0.0,0.0,72,0.00,,,0.00,WUHU21623XXSP,2013-08-12 04:18:00,
2013-08-12 00:23:00,83.1,73.1,29.55,East,90,0.0,0.0,72,0.00,,,0.00,WUHU21623XXSP,2013-08-12 04:23:00,
2013-08-12 00:28:00,82.9,73.0,29.55,ENE,67,0.0,0.0,72,0.00,,,0.00,WUHU21623XXSP,2013-08-12 04:28:00,
2013-08-12 00:33:00,82.9,73.0,29.55,ENE,67,0.0,0.0,72,0.00,,,0.00,WUHU21623XXSP,2013-08-12 04:33:00,
2013-08-12 00:38:00,82.9,73.0,29.55,ENE,67,0.0,0.0,72,0.00,,,0.00,WUHU21623XXSP,2013-08-12 04:38:00,
2013-08-12 00:43:00,82.9,73.0,29.55,NE,45,0.0,0.0,72,0.00,,,0.00,WUHU21623XXSP,2013-08-12 04:43:00,
2013-08-12 00:48:00,82.8,72.8,29.55,NE,45,0.0,0.0,72,0.00,,,0.00,WUHU21623XXSP,2013-08-12 04:48:00,
2013-08-12 00:53:00,82.8,72.8,29.54,East,90,0.0,0.0,72,0.00,,,0.00,WUHU21623XXSP,2013-08-12 04:53:00,
2013-08-12 00:58:00,82.6,72.6,29.54,NE,45,0.0,0.0,72,0.00,,,0.00,WUHU21623XXSP,2013-08-12 04:58:00,
2013-08-12 01:03:00,82.6,72.6,29.54,NE,45,0.0,0.0,72,0.00,,,0.00,WUHU21623XXSP,2013-08-12 05:03:00,
2013-08-12 01:12:00,82.6,72.6,29.54,ENE,67,0.0,0.0,72,0.00,,,0.00,WUHU21623XXSP,2013-08-12 05:12:00,
2013-08-12 01:17:00,82.4,72.4,29.54,ENE,67,0.0,0.0,72,0.00,,,0.00,WUHU21623XXSP,2013-08-12 05:17:00,
2013-08-12 01:22:00,82.4,72.4,29.54,NE,45,0.0,0.0,72,0.00,,,0.00,WUHU21623XXSP,2013-08-12 05:22:00,
2013-08-12 01:27:00,82.2,72.7,29.53,NE,45,0.0,0.0,73,0.00,,,0.00,WUHU21623XXSP,2013-08-12 05:27:00,
2013-08-12 01:32:00,82.2,72.7,29.53,ESE,112,0.0,0.0,73,0.00,,,0.00,WUHU21623XXSP,2013-08-12 05:32:00,
2013-08-12 01:37:00,82.2,72.7,29.54,ENE,67,0.0,0.0,73,0.00,,,0.00,WUHU21623XXSP,2013-08-12 05:37:00,
2013-08-12 01:42:00,82.2,72.7,29.53,NE,45,0.0,0.0,73,0.00,,,0.00,WUHU21623XXSP,2013-08-12 05:42:00,
2013-08-12 01:47:00,82.2,72.7,29.53,NE,45,0.0,0.0,73,0.00,,,0.00,WUHU21623XXSP,2013-08-12 05:47:00,
2013-08-12 01:52:00,82.2,72.7,29.53,NE,45,0.0,0.0,73,0.00,,,0.00,WUHU21623XXSP,2013-08-12 05:52:00,
2013-08-12 01:57:00,82.2,72.7,29.54,NE,45,0.0,0.0,73,0.00,,,0.00,WUHU21623XXSP,2013-08-12 05:57:00,
2013-08-12 02:02:00,82.0,72.5,29.54,NE,45,0.0,0.0,73,0.00,,,0.00,WUHU21623XXSP,2013-08-12 06:02:00,
2013-08-12 02:16:00,81.9,72.3,29.54,ENE,67,0.0,0.0,73,0.00,,,0.00,WUHU21623XXSP,2013-08-12 06:16:00,
2013-08-12 02:21:00,81.7,72.2,29.53,ENE,67,0.0,0.0,73,0.00,,,0.00,WUHU21623XXSP,2013-08-12 06:21:00,
2013-08-12 02:26:00,81.7,72.2,29.53,East,90,0.0,0.0,73,0.00,,,0.00,WUHU21623XXSP,2013-08-12 06:26:00,
2013-08-12 02:31:00,81.7,72.2,29.53,ENE,67,0.0,0.0,73,0.00,,,0.00,WUHU21623XXSP,2013-08-12 06:31:00,
2013-08-12 02:36:00,81.7,72.2,29.53,NE,45,0.0,0.0,73,0.00,,,0.00,WUHU21623XXSP,2013-08-12 06:36:00,
2013-08-12 02:41:00,81.5,72.0,29.53,NE,45,0.0,0.0,73,0.00,,,0.00,WUHU21623XXSP,2013-08-12 06:41:00,
2013-08-12 02:46:00,81.3,71.8,29.53,NE,45,0.0,0.0,73,0.00,,,0.00,WUHU21623XXSP,2013-08-12 06:46:00,
2013-08-12 02:51:00,81.3,71.8,29.52,NE,45,0.0,0.0,73,0.00,,,0.00,WUHU21623XXSP,2013-08-12 06:51:00,
2013-08-12 02:56:00,81.1,71.7,29.52,NE,45,0.0,0.0,73,0.00,,,0.00,WUHU21623XXSP,2013-08-12 06:56:00,
2013-08-12 03:01:00,81.1,71.7,29.52,NE,45,0.0,0.0,73,0.00,,,0.00,WUHU21623XXSP,2013-08-12 07:01:00,
2013-08-12 03:06:00,81.1,71.7,29.52,NE,45,0.0,0.0,73,0.00,,,0.00,WUHU21623XXSP,2013-08-12 07:06:00,
2013-08-12 03:11:00,81.0,71.5,29.52,NE,45,0.0,0.0,73,0.00,,,0.00,WUHU21623XXSP,2013-08-12 07:11:00,
2013-08-12 03:16:00,81.0,71.5,29.52,NE,45,0.0,0.0,73,0.00,,,0.00,WUHU21623XXSP,2013-08-12 07:16:00,
2013-08-12 03:21:00,80.8,71.3,29.52,NE,45,0.0,0.0,73,0.00,,,0.00,WUHU21623XXSP,2013-08-12 07:21:00,
2013-08-12 03:26:00,80.6,71.2,29.52,NE,45,0.0,0.0,73,0.00,,,0.00,WUHU21623XXSP,2013-08-12 07:26:00,
2013-08-12 03:31:00,80.4,71.0,29.52,NE,45,0.0,0.0,73,0.00,,,0.00,WUHU21623XXSP,2013-08-12 07:31:00,
2013-08-12 03:36:00,80.4,71.0,29.51,NE,45,0.0,0.0,73,0.00,,,0.00,WUHU21623XXSP,2013-08-12 07:36:00,
2013-08-12 03:41:00,80.4,71.0,29.51,NE,45,0.0,0.0,73,0.00,,,0.00,WUHU21623XXSP,2013-08-12 07:41:00,
2013-08-12 03:46:00,80.2,70.8,29.51,NE,45,0.0,0.0,73,0.00,,,0.00,WUHU21623XXSP,2013-08-12 07:46:00,
2013-08-12 03:51:00,80.2,70.8,29.51,NE,45,0.0,0.0,73,0.00,,,0.00,WUHU21623XXSP,2013-08-12 07:51:00,
2013-08-12 03:56:00,79.9,70.4,29.51,NE,45,0.0,0.0,73,0.00,,,0.00,WUHU21623XXSP,2013-08-12 07:56:00,
2013-08-12 04:01:00,79.9,70.4,29.51,NE,45,0.0,0.0,73,0.00,,,0.00,WUHU21623XXSP,2013-08-12 08:01:00,
2013-08-12 04:06:00,79.9,70.4,29.51,NE,45,0.0,0.0,73,0.00,,,0.00,WUHU21623XXSP,2013-08-12 08:06:00,
2013-08-12 04:11:00,79.7,70.3,29.51,NE,45,0.0,0.0,73,0.00,,,0.00,WUHU21623XXSP,2013-08-12 08:11:00,
2013-08-12 04:16:00,79.5,70.1,29.51,NE,45,0.0,0.0,73,0.00,,,0.00,WUHU21623XXSP,2013-08-12 08:16:00,
2013-08-12 04:21:00,79.5,70.5,29.51,NE,45,0.0,0.0,74,0.00,,,0.00,WUHU21623XXSP,2013-08-12 08:21:00,
2013-08-12 04:26:00,79.3,70.3,29.51,NE,45,0.0,0.0,74,0.00,,,0.00,WUHU21623XXSP,2013-08-12 08:26:00,
2013-08-12 04:31:00,79.3,70.3,29.51,NE,45,0.0,0.0,74,0.00,,,0.00,WUHU21623XXSP,2013-08-12 08:31:00,
2013-08-12 04:36:00,79.3,70.3,29.51,NE,45,0.0,0.0,74,0.00,,,0.00,WUHU21623XXSP,2013-08-12 08:36:00,
2013-08-12 04:41:00,79.2,70.1,29.51,NE,45,0.0,0.0,74,0.00,,,0.00,WUHU21623XXSP,2013-08-12 08:41:00,
2013-08-12 04:46:00,79.2,70.1,29.51,NE,45,0.0,0.0,74,0.00,,,0.00,WUHU21623XXSP,2013-08-12 08:46:00,
2013-08-12 04:51:00,79.0,69.9,29.51,NE,45,0.0,0.0,74,0.00,,,0.00,WUHU21623XXSP,2013-08-12 08:51:00,
2013-08-12 04:56:00,79.2,70.5,29.50,NE,45,0.0,0.0,75,0.00,,,0.00,WUHU21623XXSP,2013-08-12 08:56:00,
2013-08-12 05:01:00,79.0,70.3,29.50,NE,45,0.0,0.0,75,0.00,,,0.00,WUHU21623XXSP,2013-08-12 09:01:00,
2013-08-12 05:06:00,79.0,70.3,29.51,NE,45,0.0,0.0,75,0.00,,,0.00,WUHU21623XXSP,2013-08-12 09:06:00,
2013-08-12 05:11:00,79.0,70.3,29.50,NE,45,0.0,0.0,75,0.00,,,0.00,WUHU21623XXSP,2013-08-12 09:11:00,
2013-08-12 05:16:00,79.0,70.3,29.50,NE,45,0.0,0.0,75,0.00,,,0.00,WUHU21623XXSP,2013-08-12 09:16:00,
2013-08-12 05:21:00,78.8,70.2,29.50,NE,45,0.0,0.0,75,0.00,,,0.00,WUHU21623XXSP,2013-08-12 09:21:00,
2013-08-12 05:26:00,78.6,70.0,29.50,NE,45,0.0,0.0,75,0.00,,,0.00,WUHU21623XXSP,2013-08-12 09:26:00,
2013-08-12 05:31:00,78.6,70.0,29.50,NE,45,0.0,0.0,75,0.00,,,0.00,WUHU21623XXSP,2013-08-12 09:31:00,
2013-08-12 05:36:00,78.6,70.0,29.50,NE,45,0.0,0.0,75,0.00,,,0.00,WUHU21623XXSP,2013-08-12 09:36:00,
2013-08-12 05:41:00,78.6,70.0,29.51,NE,45,0.0,0.0,75,0.00,,,0.00,WUHU21623XXSP,2013-08-12 09:41:00,
2013-08-12 05:46:00,78.6,70.0,29.51,NE,45,0.0,0.0,75,0.00,,,0.00,WUHU21623XXSP,2013-08-12 09:46:00,
2013-08-12 05:51:00,78.6,70.4,29.51,NE,45,0.0,0.0,76,0.00,,,0.00,WUHU21623XXSP,2013-08-12 09:51:00,
2013-08-12 05:56:00,78.4,70.2,29.50,NE,45,0.0,0.0,76,0.00,,,0.00,WUHU21623XXSP,2013-08-12 09:56:00,
2013-08-12 06:01:00,78.4,70.2,29.51,NE,45,0.0,0.0,76,0.00,,,0.00,WUHU21623XXSP,2013-08-12 10:01:00,
2013-08-12 06:06:00,78.4,70.2,29.51,NE,45,0.0,0.0,76,0.00,,,0.00,WUHU21623XXSP,2013-08-12 10:06:00,
2013-08-12 06:11:00,78.4,70.2,29.51,NE,45,0.0,0.0,76,0.00,,,0.00,WUHU21623XXSP,2013-08-12 10:11:00,
2013-08-12 06:16:00,78.4,70.2,29.51,NE,45,0.0,0.0,76,0.00,,,0.00,WUHU21623XXSP,2013-08-12 10:16:00,
2013-08-12 06:21:00,78.1,69.9,29.51,NE,45,0.0,0.0,76,0.00,,,0.00,WUHU21623XXSP,2013-08-12 10:21:00,
2013-08-12 06:26:00,78.1,70.3,29.51,NE,45,0.0,0.0,77,0.00,,,0.00,WUHU21623XXSP,2013-08-12 10:26:00,
2013-08-12 06:31:00,78.1,70.3,29.51,NE,45,0.0,0.0,77,0.00,,,0.00,WUHU21623XXSP,2013-08-12 10:31:00,
2013-08-12 06:36:00,78.1,70.3,29.51,NE,45,0.0,0.0,77,0.00,,,0.00,WUHU21623XXSP,2013-08-12 10:36:00,
2013-08-12 06:41:00,77.9,70.1,29.51,NE,45,0.0,0.0,77,0.00,,,0.00,WUHU21623XXSP,2013-08-12 10:41:00,
2013-08-12 06:46:00,77.9,70.1,29.51,NE,45,0.0,0.0,77,0.00,,,0.00,WUHU21623XXSP,2013-08-12 10:46:00,
2013-08-12 06:51:00,77.9,70.1,29.52,NE,45,0.0,0.0,77,0.00,,,0.00,WUHU21623XXSP,2013-08-12 10:51:00,
2013-08-12 06:56:00,77.9,70.5,29.52,NE,45,0.0,0.0,78,0.00,,,0.00,WUHU21623XXSP,2013-08-12 10:56:00,
2013-08-12 07:01:00,77.9,70.5,29.52,NE,45,0.0,0.0,78,0.00,,,0.00,WUHU21623XXSP,2013-08-12 11:01:00,
2013-08-12 07:06:00,77.7,70.3,29.52,NE,45,0.0,0.0,78,0.00,,,0.00,WUHU21623XXSP,2013-08-12 11:06:00,
2013-08-12 07:11:00,77.9,70.5,29.52,NE,45,0.0,0.0,78,0.00,,,0.00,WUHU21623XXSP,2013-08-12 11:11:00,
2013-08-12 07:16:00,77.9,70.5,29.52,NE,45,0.0,0.0,78,0.00,,,0.00,WUHU21623XXSP,2013-08-12 11:16:00,
2013-08-12 07:21:00,78.1,70.6,29.52,NNE,22,0.0,0.0,78,0.00,,,0.00,WUHU21623XXSP,2013-08-12 11:21:00,
2013-08-12 07:26:00,78.3,70.8,29.52,South,180,0.0,0.0,78,0.00,,,0.00,WUHU21623XXSP,2013-08-12 11:26:00,
2013-08-12 07:31:00,78.4,71.0,29.52,South,180,0.0,0.0,78,0.00,,,0.00,WUHU21623XXSP,2013-08-12 11:31:00,
2013-08-12 07:36:00,78.6,71.2,29.52,South,180,0.0,0.0,78,0.00,,,0.00,WUHU21623XXSP,2013-08-12 11:36:00,
2013-08-12 07:41:00,78.8,71.7,29.52,SSW,202,0.0,0.0,79,0.00,,,0.00,WUHU21623XXSP,2013-08-12 11:41:00,
2013-08-12 07:46:00,79.0,71.9,29.52,South,180,0.0,0.0,79,0.00,,,0.00,WUHU21623XXSP,2013-08-12 11:46:00,
2013-08-12 07:51:00,79.3,72.3,29.52,NNW,337,0.0,0.0,79,0.00,,,0.00,WUHU21623XXSP,2013-08-12 11:51:00,
2013-08-12 07:56:00,79.9,72.8,29.52,NNE,22,0.0,0.0,79,0.00,,,0.00,WUHU21623XXSP,2013-08-12 11:56:00,
2013-08-12 08:01:00,80.2,73.2,29.52,NE,45,0.0,0.0,79,0.00,,,0.00,WUHU21623XXSP,2013-08-12 12:01:00,
2013-08-12 08:06:00,80.8,73.7,29.53,NNE,22,0.0,0.0,79,0.00,,,0.00,WUHU21623XXSP,2013-08-12 12:06:00,
2013-08-12 08:12:00,81.1,73.7,29.53,NE,45,0.0,0.0,78,0.00,,,0.00,WUHU21623XXSP,2013-08-12 12:12:00,
2013-08-12 08:17:00,81.5,73.6,29.53,NE,45,0.0,0.0,77,0.00,,,0.00,WUHU21623XXSP,2013-08-12 12:17:00,
2013-08-12 08:22:00,82.0,73.3,29.53,ESE,112,0.0,0.0,75,0.00,,,0.00,WUHU21623XXSP,2013-08-12 12:22:00,
2013-08-12 08:27:00,82.6,73.8,29.53,ENE,67,0.0,0.0,75,0.00,,,0.00,WUHU21623XXSP,2013-08-12 12:27:00,
2013-08-12 08:32:00,82.9,73.8,29.53,ESE,112,0.0,0.0,74,0.00,,,0.00,WUHU21623XXSP,2013-08-12 12:32:00,
2013-08-12 08:37:00,83.5,73.9,29.53,NE,45,0.0,0.0,73,0.00,,,0.00,WUHU21623XXSP,2013-08-12 12:37:00,
2013-08-12 08:42:00,83.8,73.8,29.53,East,90,0.0,0.0,72,0.00,,,0.00,WUHU21623XXSP,2013-08-12 12:42:00,
2013-08-12 08:47:00,84.0,73.6,29.53,SE,135,0.0,0.0,71,0.00,,,0.00,WUHU21623XXSP,2013-08-12 12:47:00,
2013-08-12 08:52:00,84.4,74.0,29.53,NE,45,0.0,0.0,71,0.00,,,0.00,WUHU21623XXSP,2013-08-12 12:52:00,
2013-08-12 08:57:00,84.7,74.3,29.53,SE,135,0.0,0.0,71,0.00,,,0.00,WUHU21623XXSP,2013-08-12 12:57:00,
2013-08-12 09:02:00,85.1,74.7,29.53,NE,45,0.0,0.0,71,0.00,,,0.00,WUHU21623XXSP,2013-08-12 13:02:00,
2013-08-12 09:07:00,84.9,74.1,29.53,ENE,67,0.0,0.0,70,0.00,,,0.00,WUHU21623XXSP,2013-08-12 13:07:00,
2013-08-12 09:12:00,84.7,73.5,29.53,NE,45,0.0,0.0,69,0.00,,,0.00,WUHU21623XXSP,2013-08-12 13:12:00,
2013-08-12 09:17:00,84.9,73.7,29.53,ENE,67,0.0,0.0,69,0.00,,,0.00,WUHU21623XXSP,2013-08-12 13:17:00,
2013-08-12 09:22:00,85.6,74.4,29.53,ESE,112,0.0,0.0,69,0.00,,,0.00,WUHU21623XXSP,2013-08-12 13:22:00,
2013-08-12 09:27:00,86.2,74.4,29.53,NNE,22,0.0,0.0,68,0.00,,,0.00,WUHU21623XXSP,2013-08-12 13:27:00,
2013-08-12 09:32:00,86.2,74.0,29.53,ESE,112,0.0,0.0,67,0.00,,,0.00,WUHU21623XXSP,2013-08-12 13:32:00,
2013-08-12 09:37:00,86.7,74.5,29.53,NE,45,0.0,0.0,67,0.00,,,0.00,WUHU21623XXSP,2013-08-12 13:37:00,
2013-08-12 09:42:00,87.1,73.9,29.52,East,90,0.0,0.0,65,0.00,,,0.00,WUHU21623XXSP,2013-08-12 13:42:00,
2013-08-12 09:47:00,87.4,73.8,29.52,NE,45,0.0,0.0,64,0.00,,,0.00,WUHU21623XXSP,2013-08-12 13:47:00,
2013-08-12 09:52:00,87.4,73.8,29.53,NE,45,0.0,0.0,64,0.00,,,0.00,WUHU21623XXSP,2013-08-12 13:52:00,
2013-08-12 09:57:00,87.6,74.4,29.53,ESE,112,0.0,0.0,65,0.00,,,0.00,WUHU21623XXSP,2013-08-12 13:57:00,
2013-08-12 10:02:00,88.2,74.4,29.53,ENE,67,0.0,0.0,64,0.00,,,0.00,WUHU21623XXSP,2013-08-12 14:02:00,
2013-08-12 10:07:00,88.3,74.2,29.53,NE,45,0.0,0.0,63,0.00,,,0.00,WUHU21623XXSP,2013-08-12 14:07:00,
2013-08-12 10:12:00,88.7,74.5,29.53,NNE,22,0.0,0.0,63,0.00,,,0.00,WUHU21623XXSP,2013-08-12 14:12:00,
2013-08-12 10:17:00,89.4,75.2,29.53,ENE,67,0.0,0.0,63,0.00,,,0.00,WUHU21623XXSP,2013-08-12 14:17:00,
2013-08-12 10:22:00,89.8,75.0,29.53,SE,135,0.0,0.0,62,0.00,,,0.00,WUHU21623XXSP,2013-08-12 14:22:00,
2013-08-12 10:27:00,89.8,74.6,29.53,NE,45,0.0,0.0,61,0.00,,,0.00,WUHU21623XXSP,2013-08-12 14:27:00,
2013-08-12 10:32:00,89.8,74.1,29.53,East,90,0.0,0.0,60,0.00,,,0.00,WUHU21623XXSP,2013-08-12 14:32:00,
2013-08-12 10:37:00,90.0,73.7,29.53,ESE,112,0.0,0.0,59,0.00,,,0.00,WUHU21623XXSP,2013-08-12 14:37:00,
2013-08-12 10:42:00,90.0,73.7,29.53,East,90,0.0,0.0,59,0.00,,,0.00,WUHU21623XXSP,2013-08-12 14:42:00,
2013-08-12 10:47:00,89.8,73.6,29.53,ENE,67,0.0,0.0,59,0.00,,,0.00,WUHU21623XXSP,2013-08-12 14:47:00,
2013-08-12 10:52:00,90.1,73.3,29.53,ESE,112,0.0,0.0,58,0.00,,,0.00,WUHU21623XXSP,2013-08-12 14:52:00,
2013-08-12 10:57:00,90.5,74.2,29.53,SE,135,0.0,0.0,59,0.00,,,0.00,WUHU21623XXSP,2013-08-12 14:57:00,
2013-08-12 11:02:00,90.7,73.8,29.53,East,90,0.0,0.0,58,0.00,,,0.00,WUHU21623XXSP,2013-08-12 15:02:00,
2013-08-12 11:07:00,91.2,74.3,29.53,NE,45,0.0,0.0,58,0.00,,,0.00,WUHU21623XXSP,2013-08-12 15:07:00,
2013-08-12 11:12:00,91.8,75.4,29.53,ENE,67,0.0,0.0,59,0.00,,,0.00,WUHU21623XXSP,2013-08-12 15:12:00,
2013-08-12 11:17:00,92.5,75.5,29.53,ENE,67,0.0,0.0,58,0.00,,,0.00,WUHU21623XXSP,2013-08-12 15:17:00,
2013-08-12 11:22:00,91.9,73.9,29.54,NE,45,0.0,0.0,56,0.00,,,0.00,WUHU21623XXSP,2013-08-12 15:22:00,
2013-08-12 11:27:00,91.8,74.3,29.53,ENE,67,0.0,0.0,57,0.00,,,0.00,WUHU21623XXSP,2013-08-12 15:27:00,
2013-08-12 11:32:00,91.8,74.3,29.54,SE,135,0.0,0.0,57,0.00,,,0.00,WUHU21623XXSP,2013-08-12 15:32:00,
2013-08-12 11:42:00,92.5,75.0,29.54,ENE,67,0.0,0.0,57,0.00,,,0.00,WUHU21623XXSP,2013-08-12 15:42:00,
2013-08-12 11:47:00,93.2,75.7,29.53,ESE,112,0.0,0.0,57,0.00,,,0.00,WUHU21623XXSP,2013-08-12 15:47:00,
2013-08-12 11:52:00,93.7,75.6,29.53,ESE,112,0.0,0.0,56,0.00,,,0.00,WUHU21623XXSP,2013-08-12 15:52:00,
2013-08-12 11:57:00,93.6,75.5,29.53,ESE,112,0.0,0.0,56,0.00,,,0.00,WUHU21623XXSP,2013-08-12 15:57:00,
2013-08-12 12:02:00,93.6,75.5,29.53,SE,135,0.0,0.0,56,0.00,,,0.00,WUHU21623XXSP,2013-08-12 16:02:00,
2013-08-12 12:07:00,94.3,75.6,29.52,East,90,0.0,0.0,55,0.00,,,0.00,WUHU21623XXSP,2013-08-12 16:07:00,
2013-08-12 12:12:00,94.3,75.6,29.52,ENE,67,0.0,0.0,55,0.00,,,0.00,WUHU21623XXSP,2013-08-12 16:12:00,
2013-08-12 12:17:00,93.7,75.6,29.53,NE,45,0.0,0.0,56,0.00,,,0.00,WUHU21623XXSP,2013-08-12 16:17:00,
2013-08-12 12:22:00,93.9,75.8,29.53,ENE,67,0.0,0.0,56,0.00,,,0.00,WUHU21623XXSP,2013-08-12 16:22:00,
2013-08-12 12:27:00,94.6,76.5,29.52,ESE,112,0.0,0.0,56,0.00,,,0.00,WUHU21623XXSP,2013-08-12 16:27:00,
2013-08-12 12:32:00,95.5,77.3,29.52,ENE,67,0.0,0.0,56,0.00,,,0.00,WUHU21623XXSP,2013-08-12 16:32:00,
2013-08-12 12:37:00,95.5,76.8,29.52,ESE,112,0.0,0.0,55,0.00,,,0.00,WUHU21623XXSP,2013-08-12 16:37:00,
2013-08-12 12:42:00,94.8,76.1,29.52,NE,45,0.0,0.0,55,0.00,,,0.00,WUHU21623XXSP,2013-08-12 16:42:00,
2013-08-12 12:47:00,94.3,76.1,29.52,SSE,157,0.0,0.0,56,0.00,,,0.00,WUHU21623XXSP,2013-08-12 16:47:00,
2013-08-12 12:52:00,93.9,75.8,29.52,ESE,112,0.0,0.0,56,0.00,,,0.00,WUHU21623XXSP,2013-08-12 16:52:00,
2013-08-12 12:57:00,93.9,75.8,29.51,ENE,67,0.0,0.0,56,0.00,,,0.00,WUHU21623XXSP,2013-08-12 16:57:00,
2013-08-12 13:02:00,93.7,75.1,29.52,East,90,0.0,0.0,55,0.00,,,0.00,WUHU21623XXSP,2013-08-12 17:02:00,
2013-08-12 13:07:00,94.5,76.3,29.51,NE,45,0.0,0.0,56,0.00,,,0.00,WUHU21623XXSP,2013-08-12 17:07:00,
2013-08-12 13:12:00,95.2,75.9,29.52,SE,135,0.0,0.0,54,0.00,,,0.00,WUHU21623XXSP,2013-08-12 17:12:00,
2013-08-12 13:17:00,95.5,76.2,29.51,ENE,67,0.0,0.0,54,0.00,,,0.00,WUHU21623XXSP,2013-08-12 17:17:00,
2013-08-12 13:22:00,95.5,75.7,29.51,SE,135,0.0,0.0,53,0.00,,,0.00,WUHU21623XXSP,2013-08-12 17:22:00,
2013-08-12 13:27:00,95.2,74.8,29.51,NE,45,0.0,0.0,52,0.00,,,0.00,WUHU21623XXSP,2013-08-12 17:27:00,
2013-08-12 13:32:00,94.8,75.0,29.51,NE,45,0.0,0.0,53,0.00,,,0.00,WUHU21623XXSP,2013-08-12 17:32:00,
2013-08-12 13:37:00,94.8,75.0,29.51,NE,45,0.0,0.0,53,0.00,,,0.00,WUHU21623XXSP,2013-08-12 17:37:00,
2013-08-12 13:42:00,95.2,75.9,29.50,ENE,67,0.0,0.0,54,0.00,,,0.00,WUHU21623XXSP,2013-08-12 17:42:00,
2013-08-12 13:47:00,94.3,75.0,29.50,NE,45,0.0,0.0,54,0.00,,,0.00,WUHU21623XXSP,2013-08-12 17:47:00,
2013-08-12 13:52:00,93.0,74.4,29.50,ENE,67,0.0,0.0,55,0.00,,,0.00,WUHU21623XXSP,2013-08-12 17:52:00,
2013-08-12 13:57:00,91.9,74.5,29.50,NNE,22,0.0,0.0,57,0.00,,,0.00,WUHU21623XXSP,2013-08-12 17:57:00,
2013-08-12 14:02:00,91.2,75.4,29.50,NE,45,0.0,0.0,60,0.00,,,0.00,WUHU21623XXSP,2013-08-12 18:02:00,
2013-08-12 14:07:00,88.9,74.7,29.50,NNE,22,0.0,0.0,63,0.04,,,0.00,WUHU21623XXSP,2013-08-12 18:07:00,
2013-08-12 14:12:00,86.7,74.0,29.51,NE,45,0.0,0.0,66,0.06,,,0.06,WUHU21623XXSP,2013-08-12 18:12:00,
2013-08-12 14:17:00,84.4,72.2,29.50,NE,45,0.0,0.0,67,0.10,,,0.08,WUHU21623XXSP,2013-08-12 18:17:00,
2013-08-12 14:22:00,84.0,72.3,29.50,ENE,67,0.0,0.0,68,0.10,,,0.10,WUHU21623XXSP,2013-08-12 18:22:00,
2013-08-12 14:27:00,84.7,73.5,29.50,North,0,0.0,0.0,69,0.10,,,0.10,WUHU21623XXSP,2013-08-12 18:27:00,
2013-08-12 14:32:00,86.4,75.9,29.50,North,0,0.0,0.0,71,0.10,,,0.10,WUHU21623XXSP,2013-08-12 18:32:00,
2013-08-12 14:37:00,87.3,76.7,29.50,NNW,337,0.0,0.0,71,0.10,,,0.10,WUHU21623XXSP,2013-08-12 18:37:00,
2013-08-12 14:42:00,88.0,77.4,29.50,SSE,157,0.0,0.0,71,0.10,,,0.10,WUHU21623XXSP,2013-08-12 18:42:00,
2013-08-12 14:47:00,88.3,76.9,29.50,NE,45,0.0,0.0,69,0.10,,,0.10,WUHU21623XXSP,2013-08-12 18:47:00,
2013-08-12 14:52:00,87.6,74.8,29.50,NE,45,0.0,0.0,66,0.10,,,0.10,WUHU21623XXSP,2013-08-12 18:52:00,
2013-08-12 14:57:00,87.1,74.8,29.49,NE,45,0.0,0.0,67,0.10,,,0.10,WUHU21623XXSP,2013-08-12 18:57:00,
2013-08-12 15:02:00,86.7,74.5,29.49,NE,45,0.0,0.0,67,0.10,,,0.10,WUHU21623XXSP,2013-08-12 19:02:00,
2013-08-12 15:07:00,86.7,74.9,29.49,NNE,22,0.0,0.0,68,0.06,,,0.10,WUHU21623XXSP,2013-08-12 19:07:00,
2013-08-12 15:12:00,86.5,74.8,29.49,ENE,67,0.0,0.0,68,0.04,,,0.10,WUHU21623XXSP,2013-08-12 19:12:00,
2013-08-12 15:17:00,86.2,74.4,29.48,NE,45,0.0,0.0,68,0.00,,,0.10,WUHU21623XXSP,2013-08-12 19:17:00,
2013-08-12 15:22:00,86.2,74.4,29.48,NNE,22,0.0,0.0,68,0.00,,,0.10,WUHU21623XXSP,2013-08-12 19:22:00,
2013-08-12 15:27:00,86.2,74.4,29.48,NE,45,0.0,0.0,68,0.00,,,0.10,WUHU21623XXSP,2013-08-12 19:27:00,
2013-08-12 15:32:00,86.2,74.4,29.48,NE,45,0.0,0.0,68,0.00,,,0.10,WUHU21623XXSP,2013-08-12 19:32:00,
2013-08-12 15:37:00,86.2,74.4,29.48,ENE,67,0.0,0.0,68,0.00,,,0.10,WUHU21623XXSP,2013-08-12 19:37:00,
2013-08-12 15:42:00,86.4,74.6,29.48,ENE,67,0.0,0.0,68,0.00,,,0.10,WUHU21623XXSP,2013-08-12 19:42:00,
2013-08-12 15:47:00,86.5,74.8,29.48,NE,45,0.0,0.0,68,0.00,,,0.10,WUHU21623XXSP,2013-08-12 19:47:00,
2013-08-12 15:52:00,86.5,74.3,29.48,NE,45,0.0,0.0,67,0.00,,,0.10,WUHU21623XXSP,2013-08-12 19:52:00,
2013-08-12 15:57:00,86.4,74.1,29.48,NE,45,0.0,0.0,67,0.00,,,0.10,WUHU21623XXSP,2013-08-12 19:57:00,
2013-08-12 16:02:00,86.7,74.5,29.48,NE,45,0.0,0.0,67,0.00,,,0.10,WUHU21623XXSP,2013-08-12 20:02:00,
2013-08-12 16:07:00,87.1,74.3,29.48,East,90,0.0,0.0,66,0.00,,,0.10,WUHU21623XXSP,2013-08-12 20:07:00,
2013-08-12 16:12:00,87.6,74.4,29.48,ESE,112,0.0,0.0,65,0.00,,,0.10,WUHU21623XXSP,2013-08-12 20:12:00,
2013-08-12 16:17:00,88.9,75.1,29.48,ENE,67,0.0,0.0,64,0.00,,,0.10,WUHU21623XXSP,2013-08-12 20:17:00,
2013-08-12 16:22:00,89.4,75.2,29.48,East,90,0.0,0.0,63,0.00,,,0.10,WUHU21623XXSP,2013-08-12 20:22:00,
2013-08-12 16:27:00,90.3,76.0,29.48,ESE,112,0.0,0.0,63,0.00,,,0.10,WUHU21623XXSP,2013-08-12 20:27:00,
2013-08-12 16:32:00,90.7,74.4,29.48,NE,45,0.0,0.0,59,0.00,,,0.10,WUHU21623XXSP,2013-08-12 20:32:00,
2013-08-12 16:37:00,90.7,74.4,29.48,NE,45,0.0,0.0,59,0.00,,,0.10,WUHU21623XXSP,2013-08-12 20:37:00,
2013-08-12 16:42:00,90.9,74.0,29.48,NE,45,0.0,0.0,58,0.00,,,0.10,WUHU21623XXSP,2013-08-12 20:42:00,
2013-08-12 16:47:00,91.2,74.3,29.48,ESE,112,0.0,0.0,58,0.00,,,0.10,WUHU21623XXSP,2013-08-12 20:47:00,
2013-08-12 16:52:00,91.2,74.3,29.48,East,90,0.0,0.0,58,0.00,,,0.10,WUHU21623XXSP,2013-08-12 20:52:00,
2013-08-12 16:57:00,91.2,74.9,29.47,SE,135,0.0,0.0,59,0.00,,,0.10,WUHU21623XXSP,2013-08-12 20:57:00,
2013-08-12 17:02:00,91.2,74.3,29.47,ENE,67,0.0,0.0,58,0.00,,,0.10,WUHU21623XXSP,2013-08-12 21:02:00,
2013-08-12 17:07:00,91.2,74.9,29.47,ENE,67,0.0,0.0,59,0.00,,,0.10,WUHU21623XXSP,2013-08-12 21:07:00,
2013-08-12 17:12:00,91.0,75.7,29.47,ENE,67,0.0,0.0,61,0.00,,,0.10,WUHU21623XXSP,2013-08-12 21:12:00,
2013-08-12 17:17:00,90.7,75.4,29.47,NNE,22,0.0,0.0,61,0.00,,,0.10,WUHU21623XXSP,2013-08-12 21:17:00,
2013-08-12 17:22:00,90.1,74.4,29.47,ENE,67,0.0,0.0,60,0.00,,,0.10,WUHU21623XXSP,2013-08-12 21:22:00,
2013-08-12 17:27:00,89.2,74.1,29.47,ENE,67,0.0,0.0,61,0.00,,,0.10,WUHU21623XXSP,2013-08-12 21:27:00,
2013-08-12 17:32:00,89.2,74.5,29.47,NE,45,0.0,0.0,62,0.00,,,0.10,WUHU21623XXSP,2013-08-12 21:32:00,
2013-08-12 17:37:00,89.4,75.2,29.47,NE,45,0.0,0.0,63,0.00,,,0.10,WUHU21623XXSP,2013-08-12 21:37:00,
2013-08-12 17:42:00,89.2,75.5,29.46,NE,45,0.0,0.0,64,0.00,,,0.10,WUHU21623XXSP,2013-08-12 21:42:00,
2013-08-12 17:47:00,89.2,75.5,29.47,NE,45,0.0,0.0,64,0.00,,,0.10,WUHU21623XXSP,2013-08-12 21:47:00,
2013-08-12 17:52:00,89.4,76.1,29.47,East,90,0.0,0.0,65,0.00,,,0.10,WUHU21623XXSP,2013-08-12 21:52:00,
2013-08-12 17:57:00,90.1,76.3,29.47,NE,45,0.0,0.0,64,0.00,,,0.10,WUHU21623XXSP,2013-08-12 21:57:00,
2013-08-12 18:02:00,90.5,76.2,29.47,ESE,112,0.0,0.0,63,0.00,,,0.10,WUHU21623XXSP,2013-08-12 22:02:00,
2013-08-12 18:07:00,90.9,75.5,29.47,ENE,67,0.0,0.0,61,0.00,,,0.10,WUHU21623XXSP,2013-08-12 22:07:00,
2013-08-12 18:12:00,90.3,74.6,29.48,SE,135,0.0,0.0,60,0.00,,,0.10,WUHU21623XXSP,2013-08-12 22:12:00,
2013-08-12 18:17:00,90.1,74.4,29.47,NE,45,0.0,0.0,60,0.00,,,0.10,WUHU21623XXSP,2013-08-12 22:17:00,
2013-08-12 18:22:00,89.4,74.2,29.47,NE,45,0.0,0.0,61,0.00,,,0.10,WUHU21623XXSP,2013-08-12 22:22:00,
2013-08-12 18:27:00,88.9,73.7,29.47,NE,45,0.0,0.0,61,0.00,,,0.10,WUHU21623XXSP,2013-08-12 22:27:00,
2013-08-12 18:32:00,88.3,73.3,29.47,ENE,67,0.0,0.0,61,0.00,,,0.10,WUHU21623XXSP,2013-08-12 22:32:00,
2013-08-12 18:37:00,87.6,72.6,29.47,NNE,22,0.0,0.0,61,0.00,,,0.10,WUHU21623XXSP,2013-08-12 22:37:00,
2013-08-12 18:42:00,86.9,72.8,29.47,NE,45,0.0,0.0,63,0.00,,,0.10,WUHU21623XXSP,2013-08-12 22:42:00,
2013-08-12 18:47:00,86.5,72.9,29.47,ENE,67,0.0,0.0,64,0.00,,,0.10,WUHU21623XXSP,2013-08-12 22:47:00,
2013-08-12 18:52:00,86.5,73.4,29.47,NE,45,0.0,0.0,65,0.00,,,0.10,WUHU21623XXSP,2013-08-12 22:52:00,
2013-08-12 18:58:00,86.2,73.5,29.47,NNE,22,0.0,0.0,66,0.00,,,0.10,WUHU21623XXSP,2013-08-12 22:58:00,
2013-08-12 19:03:00,86.0,73.8,29.47,NE,45,0.0,0.0,67,0.00,,,0.10,WUHU21623XXSP,2013-08-12 23:03:00,
2013-08-12 19:08:00,86.0,73.8,29.47,NNE,22,0.0,0.0,67,0.00,,,0.10,WUHU21623XXSP,2013-08-12 23:08:00,
2013-08-12 19:13:00,86.0,74.3,29.47,NE,45,0.0,0.0,68,0.00,,,0.10,WUHU21623XXSP,2013-08-12 23:13:00,
2013-08-12 19:18:00,86.2,74.4,29.47,NE,45,0.0,0.0,68,0.00,,,0.10,WUHU21623XXSP,2013-08-12 23:18:00,
2013-08-12 19:23:00,85.8,74.1,29.47,NE,45,0.0,0.0,68,0.00,,,0.10,WUHU21623XXSP,2013-08-12 23:23:00,
2013-08-12 19:28:00,85.6,73.9,29.47,NNE,22,0.0,0.0,68,0.00,,,0.10,WUHU21623XXSP,2013-08-12 23:28:00,
2013-08-12 19:33:00,85.6,73.9,29.47,NE,45,0.0,0.0,68,0.00,,,0.10,WUHU21623XXSP,2013-08-12 23:33:00,
2013-08-12 19:38:00,85.3,73.5,29.47,ESE,112,0.0,0.0,68,0.00,,,0.10,WUHU21623XXSP,2013-08-12 23:38:00,
2013-08-12 19:43:00,85.1,73.4,29.47,ENE,67,0.0,0.0,68,0.00,,,0.10,WUHU21623XXSP,2013-08-12 23:43:00,
2013-08-12 19:48:00,85.1,73.8,29.47,NE,45,0.0,0.0,69,0.00,,,0.10,WUHU21623XXSP,2013-08-12 23:48:00,
2013-08-12 19:53:00,84.9,73.7,29.46,NE,45,0.0,0.0,69,0.00,,,0.10,WUHU21623XXSP,2013-08-12 23:53:00,
2013-08-12 19:58:00,84.7,73.5,29.46,NNE,22,0.0,0.0,69,0.00,,,0.10,WUHU21623XXSP,2013-08-12 23:58:00,
2013-08-12 20:03:00,84.6,73.8,29.46,NE,45,0.0,0.0,70,0.00,,,0.10,WUHU21623XXSP,2013-08-13 00:03:00,
2013-08-12 20:08:00,84.4,73.6,29.46,ESE,112,0.0,0.0,70,0.00,,,0.10,WUHU21623XXSP,2013-08-13 00:08:00,
2013-08-12 20:13:00,84.0,73.6,29.46,NE,45,0.0,0.0,71,0.00,,,0.10,WUHU21623XXSP,2013-08-13 00:13:00,
2013-08-12 20:18:00,84.0,73.6,29.46,NE,45,0.0,0.0,71,0.00,,,0.10,WUHU21623XXSP,2013-08-13 00:18:00,
2013-08-12 20:23:00,84.0,73.6,29.47,ENE,67,0.0,0.0,71,0.00,,,0.10,WUHU21623XXSP,2013-08-13 00:23:00,
2013-08-12 20:28:00,84.0,73.6,29.46,ENE,67,0.0,0.0,71,0.00,,,0.10,WUHU21623XXSP,2013-08-13 00:28:00,
2013-08-12 20:33:00,83.8,73.8,29.47,ENE,67,0.0,0.0,72,0.00,,,0.10,WUHU21623XXSP,2013-08-13 00:33:00,
2013-08-12 20:38:00,83.8,73.8,29.46,NE,45,0.0,0.0,72,0.00,,,0.10,WUHU21623XXSP,2013-08-13 00:38:00,
2013-08-12 20:43:00,83.7,73.7,29.46,NE,45,0.0,0.0,72,0.00,,,0.10,WUHU21623XXSP,2013-08-13 00:43:00,
2013-08-12 20:48:00,83.5,73.5,29.47,East,90,0.0,0.0,72,0.00,,,0.10,WUHU21623XXSP,2013-08-13 00:48:00,
2013-08-12 20:53:00,83.5,73.5,29.47,ENE,67,0.0,0.0,72,0.00,,,0.10,WUHU21623XXSP,2013-08-13 00:53:00,
2013-08-12 20:58:00,83.5,73.5,29.47,East,90,0.0,0.0,72,0.00,,,0.10,WUHU21623XXSP,2013-08-13 00:58:00,
2013-08-12 21:03:00,83.3,73.3,29.48,East,90,0.0,0.0,72,0.00,,,0.10,WUHU21623XXSP,2013-08-13 01:03:00,
2013-08-12 21:08:00,83.3,73.3,29.48,ENE,67,0.0,0.0,72,0.00,,,0.10,WUHU21623XXSP,2013-08-13 01:08:00,
2013-08-12 21:13:00,83.3,73.3,29.48,East,90,0.0,0.0,72,0.00,,,0.10,WUHU21623XXSP,2013-08-13 01:13:00,
2013-08-12 21:18:00,83.1,73.1,29.48,ENE,67,0.0,0.0,72,0.00,,,0.10,WUHU21623XXSP,2013-08-13 01:18:00,
2013-08-12 21:23:00,83.1,73.1,29.48,ENE,67,0.0,0.0,72,0.00,,,0.10,WUHU21623XXSP,2013-08-13 01:23:00,
2013-08-12 21:28:00,83.1,73.1,29.48,NE,45,0.0,0.0,72,0.00,,,0.10,WUHU21623XXSP,2013-08-13 01:28:00,
2013-08-12 21:33:00,83.1,73.1,29.48,East,90,0.0,0.0,72,0.00,,,0.10,WUHU21623XXSP,2013-08-13 01:33:00,
2013-08-12 21:38:00,82.9,73.4,29.48,ENE,67,0.0,0.0,73,0.00,,,0.10,WUHU21623XXSP,2013-08-13 01:38:00,
2013-08-12 21:43:00,82.9,73.4,29.48,NE,45,0.0,0.0,73,0.00,,,0.10,WUHU21623XXSP,2013-08-13 01:43:00,
2013-08-12 21:48:00,82.9,73.4,29.48,NE,45,0.0,0.0,73,0.00,,,0.10,WUHU21623XXSP,2013-08-13 01:48:00,
2013-08-12 21:53:00,82.9,73.4,29.48,NE,45,0.0,0.0,73,0.00,,,0.10,WUHU21623XXSP,2013-08-13 01:53:00,
2013-08-12 21:58:00,82.9,73.4,29.49,NE,45,0.0,0.0,73,0.00,,,0.10,WUHU21623XXSP,2013-08-13 01:58:00,
2013-08-12 22:03:00,82.9,73.4,29.48,East,90,0.0,0.0,73,0.00,,,0.10,WUHU21623XXSP,2013-08-13 02:03:00,
2013-08-12 22:08:00,82.8,73.2,29.48,ESE,112,0.0,0.0,73,0.00,,,0.10,WUHU21623XXSP,2013-08-13 02:08:00,
2013-08-12 22:13:00,82.8,73.2,29.49,ESE,112,0.0,0.0,73,0.00,,,0.10,WUHU21623XXSP,2013-08-13 02:13:00,
2013-08-12 22:18:00,82.6,73.0,29.49,East,90,0.0,0.0,73,0.00,,,0.10,WUHU21623XXSP,2013-08-13 02:18:00,
2013-08-12 22:23:00,82.6,73.0,29.49,ENE,67,0.0,0.0,73,0.00,,,0.10,WUHU21623XXSP,2013-08-13 02:23:00,
2013-08-12 22:29:00,82.6,73.0,29.49,East,90,0.0,0.0,73,0.00,,,0.10,WUHU21623XXSP,2013-08-13 02:29:00,
2013-08-12 22:34:00,82.6,73.4,29.49,ENE,67,0.0,0.0,74,0.00,,,0.10,WUHU21623XXSP,2013-08-13 02:34:00,
2013-08-12 22:39:00,82.6,73.4,29.49,ESE,112,0.0,0.0,74,0.00,,,0.10,WUHU21623XXSP,2013-08-13 02:39:00,
2013-08-12 22:44:00,82.6,73.4,29.49,SE,135,0.0,0.0,74,0.00,,,0.10,WUHU21623XXSP,2013-08-13 02:44:00,
2013-08-12 22:49:00,82.4,73.3,29.50,ESE,112,0.0,0.0,74,0.00,,,0.10,WUHU21623XXSP,2013-08-13 02:49:00,
2013-08-12 22:54:00,82.4,73.3,29.50,ENE,67,0.0,0.0,74,0.00,,,0.10,WUHU21623XXSP,2013-08-13 02:54:00,
2013-08-12 22:59:00,82.2,73.1,29.50,ENE,67,0.0,0.0,74,0.00,,,0.10,WUHU21623XXSP,2013-08-13 02:59:00,
2013-08-12 23:04:00,82.2,73.1,29.50,SE,135,0.0,0.0,74,0.00,,,0.10,WUHU21623XXSP,2013-08-13 03:04:00,
2013-08-12 23:09:00,82.2,73.1,29.50,ESE,112,0.0,0.0,74,0.00,,,0.10,WUHU21623XXSP,2013-08-13 03:09:00,
2013-08-12 23:14:00,82.2,73.1,29.50,ESE,112,0.0,0.0,74,0.00,,,0.10,WUHU21623XXSP,2013-08-13 03:14:00,
2013-08-12 23:19:00,82.0,72.9,29.50,ESE,112,0.0,0.0,74,0.00,,,0.10,WUHU21623XXSP,2013-08-13 03:19:00,
2013-08-12 23:24:00,82.0,72.9,29.50,SE,135,0.0,0.0,74,0.00,,,0.10,WUHU21623XXSP,2013-08-13 03:24:00,
2013-08-12 23:29:00,82.0,72.9,29.50,SE,135,0.0,0.0,74,0.00,,,0.10,WUHU21623XXSP,2013-08-13 03:29:00,
2013-08-12 23:34:00,82.0,72.9,29.50,SE,135,0.0,0.0,74,0.00,,,0.10,WUHU21623XXSP,2013-08-13 03:34:00,
2013-08-12 23:39:00,82.0,72.9,29.50,ESE,112,0.0,0.0,74,0.00,,,0.10,WUHU21623XXSP,2013-08-13 03:39:00,
2013-08-12 23:44:00,82.0,72.9,29.49,ESE,112,0.0,0.0,74,0.00,,,0.10,WUHU21623XXSP,2013-08-13 03:44:00,
2013-08-12 23:53:00,82.0,72.9,29.49,SE,135,0.0,0.0,74,0.00,,,0.10,WUHU21623XXSP,2013-08-13 03:53:00,
2013-08-12 23:55:00,81.9,72.7,29.49,SE,135,0.0,0.0,74,0.00,,,0.10,WUHU21623XXSP,2013-08-13 03:55:00,